Terug naar catalogus

STARLINK-34219

ActiefCommunicatieVLEO
NORAD 64270·PAYLOAD·🇺🇸 United States

Gelanceerd Jun 4, 2025 vanaf Vandenberg Space Force Base

Loading…

Volgende Passages (komende 24 uur)

TLE

VersSource: CelesTrak SupGP

Epoch: Sep 14, 2026, 20:51 UTC

1 64270C 25120Q   26257.86923611 -.00015767  00000+0 -46594-3 0  2572
2 64270  53.1575 316.1128 0001140  86.3869  20.9924 15.34392264    11

Volg STARLINK-34219 in realtime met AllMySat

Download on the App Store